Location: Monroe
(41.9160°N, 83.3980°W)
Time: 03:17:29
(UTC-05:00)

Amateur Radio Satellites - All Passes

Search period start: 29 January 2015 02:47
Search period end: 30 January 2015 02:47
Location: Monroe, 41.9160°N, 83.3980°W

Satellite Date Start Highest point End Downlink Frequencies (MHz)
Time Altitude Azimuth
ITAMSAT 1 29 Jan 02:54:35 02:59:49 72° 102° (ESE) 03:05:03 435.822/435.867
GONETS M04 29 Jan 02:56:59 03:05:25 48° 287° (WNW) 03:13:44
M-CUBED/EXP-1 PRIME 29 Jan 03:04:38 03:08:41 61° 254° (WSW) 03:12:24 437.505
AIST 2 29 Jan 03:18:26 03:22:32 52° 119° (ESE) 03:26:44 435.215
BEESAT 2 29 Jan 03:24:39 03:28:44 57° 306° (NW) 03:32:51 435.950
PCSat 29 Jan 03:27:48 03:30:01 13° 104° (ESE) 03:32:33 145.827
DANDE 29 Jan 03:30:00 03:36:09 25° 84° (E) 03:42:51 436.750
AUBIESAT-1 29 Jan 03:38:50 03:42:18 27° 258° (WSW) 03:45:31 437.475
BEESAT 3 29 Jan 03:39:29 03:43:19 36° 310° (NW) 03:47:11 437.485
Gurwin Techsat 1B 29 Jan 03:49:36 03:54:47 53° 289° (WNW) 03:59:55 435.225
JAS-2 29 Jan 03:49:50 03:51:41 12° 88° (E) 03:54:02 435.910
ISS 29 Jan 03:50:21 03:53:24 33° 25° (NNE) 03:56:27 145.825
CUSAT 1 29 Jan 03:59:14 04:06:48 44° 91° (E) 04:14:41 437.405
STARS 29 Jan 04:10:11 04:11:43 11° 272° (W) 04:12:59 437.465
MOZHAYETS 4 29 Jan 04:12:13 04:16:37 48° 73° (ENE) 04:21:04
HORYU 2 29 Jan 04:16:22 04:20:51 77° 284° (WNW) 04:25:15 437.375
RS-15 29 Jan 04:18:08 04:27:22 35° 108° (ESE) 04:36:54 29.354- 29.394
AO-7 29 Jan 04:24:44 04:32:47 50° 100° (E) 04:40:48 29.400- 29.500
ITAMSAT 1 29 Jan 04:35:38 04:38:48 16° 299° (WNW) 04:41:46 435.822/435.867
AIST 2 29 Jan 04:58:17 05:01:30 20° 318° (NW) 05:04:40 435.215
PCSat 29 Jan 05:07:22 05:12:47 85° 298° (WNW) 05:18:16 145.827
YUBILEINY 29 Jan 05:09:21 05:13:20 14° 55° (NE) 05:17:55 435.215
DANDE 29 Jan 05:10:38 05:18:51 79° 281° (W) 05:27:35 436.750
ISS 29 Jan 05:26:52 05:29:56 35° 222° (SW) 05:32:58 145.825
JAS-2 29 Jan 05:31:51 05:37:32 87° 103° (ESE) 05:43:56 435.910
CUSAT 1 29 Jan 05:42:00 05:49:53 46° 289° (WNW) 05:57:50 437.405
MOZHAYETS 4 29 Jan 05:51:09 05:54:12 17° 270° (W) 05:57:04
CUBESAT XI-V 29 Jan 06:03:50 06:08:18 54° 73° (ENE) 06:12:50 437.345
STRAND 1 29 Jan 06:04:27 06:09:13 43° 70° (ENE) 06:14:05 437.568
PRISM 29 Jan 06:12:53 06:16:59 77° 257° (WSW) 06:21:07 437.425
AO-7 29 Jan 06:17:51 06:25:27 39° 299° (WNW) 06:32:52 29.400- 29.500
RS-15 29 Jan 06:28:13 06:39:05 67° 309° (NW) 06:50:05 29.354- 29.394
Cubesat XI-IV 29 Jan 06:35:11 06:40:23 49° 99° (E) 06:45:36 437.490
PCSat 29 Jan 06:53:40 06:57:07 16° 321° (NW) 07:00:25 145.827
CUTE-I 29 Jan 06:55:08 07:00:32 73° 102° (ESE) 07:05:55 437.470
DANDE 29 Jan 06:57:50 07:03:51 20° 302° (WNW) 07:09:34 436.750
YUBILEINY 29 Jan 07:03:32 07:12:17 69° 79° (E) 07:21:05 435.215
JAS-2 29 Jan 07:19:06 07:22:11 14° 298° (WNW) 07:25:08 435.910
CUBESAT XI-V 29 Jan 07:43:26 07:46:11 15° 271° (W) 07:48:45 437.345
STRAND 1 29 Jan 07:44:38 07:48:40 23° 267° (W) 07:52:37 437.568
VERMONT LUNAR 29 Jan 08:00:30 08:01:22 11° 147° (SSE) 08:02:21 437.305
Cubesat XI-IV 29 Jan 08:15:59 08:20:13 23° 296° (WNW) 08:24:19 437.490
HO-68 29 Jan 08:23:51 08:29:23 25° 92° (E) 08:35:07 435.675
SEEDS 29 Jan 08:26:04 08:27:39 12° 88° (E) 08:29:28 437.485
CUTE-I 29 Jan 08:36:45 08:40:05 16° 299° (WNW) 08:43:13 437.470
RS-15 29 Jan 08:45:13 08:54:07 27° 339° (NNW) 09:03:02 29.354- 29.394
COMPASS 1 29 Jan 08:51:37 08:54:39 20° 92° (E) 08:57:46 437.405
PHONESAT 2.4 29 Jan 08:57:09 08:59:28 16° 150° (SSE) 09:01:50 2401.200-2431.200
GOMX 1 29 Jan 08:59:18 09:04:22 40° 95° (E) 09:09:15 467.674
CINEMA 3 29 Jan 09:01:03 09:03:48 16° 88° (E) 09:06:42 145.822/145.860
YUBILEINY 29 Jan 09:01:32 09:08:27 26° 277° (W) 09:15:03 435.215
BRITE-PL 29 Jan 09:03:04 09:08:43 61° 99° (E) 09:14:08 437.365/2234.400
CANX-2 29 Jan 09:04:54 09:08:57 43° 98° (E) 09:12:59 2200.000
DOVE 4 29 Jan 09:12:06 09:16:54 37° 95° (E) 09:21:31 437.250
DELFI C3 29 Jan 09:15:06 09:16:24 12° 88° (E) 09:17:56 145.870
AAUSAT CUBESAT 2 29 Jan 09:17:27 09:21:13 33° 96° (E) 09:25:00 437.432
UWE-3 29 Jan 09:19:29 09:19:41 10° 86° (E) 09:20:10 435.000/436.395/437.385
POLYITAN 1 29 Jan 09:23:31 09:25:14 12° 63° (ENE) 09:27:09 437.675
UNISAT 6 29 Jan 09:24:20 09:27:56 23° 67° (ENE) 09:31:40 437.425
CUTE 1.7 + AOD 2 29 Jan 09:28:57 09:33:12 76° 102° (ESE) 09:37:24 437.475
Oscar 11 29 Jan 09:30:35 09:34:01 23° 93° (E) 09:37:31 145.826/435.025
VERMONT LUNAR 29 Jan 09:35:40 09:38:56 38° 161° (SSE) 09:42:13 437.305
POPSAT HIP 1 29 Jan 09:42:11 09:45:09 19° 66° (ENE) 09:48:16 437.405
DUCHIFAT 1 29 Jan 09:44:47 09:47:51 20° 67° (ENE) 09:51:01 145.980
SO-50 29 Jan 09:58:48 10:02:17 23° 112° (ESE) 10:05:59 436.795
ANTELSAT 29 Jan 09:59:14 10:03:47 50° 73° (ENE) 10:08:21 437.575/2403.000
SEEDS 29 Jan 09:59:48 10:03:56 56° 286° (WNW) 10:08:02 437.485
UKube-1 29 Jan 10:05:39 10:09:31 31° 96° (E) 10:13:24 .
TIGRISAT 29 Jan 10:06:55 10:11:32 58° 74° (ENE) 10:16:11 435.000
BEESAT 2 29 Jan 10:07:22 10:09:34 14° 38° (NE) 10:11:52 435.950
HO-68 29 Jan 10:10:37 10:17:41 64° 290° (WNW) 10:24:44 435.675
CUBEBUG 2 29 Jan 10:12:20 10:16:47 48° 98° (E) 10:21:04 437.445
NANOSAT C BR1 29 Jan 10:18:12 10:22:16 45° 72° (ENE) 10:26:23 145.865
ZACube-1 29 Jan 10:20:12 10:24:24 40° 97° (E) 10:28:28 437.345
BEESAT 3 29 Jan 10:20:59 10:24:00 19° 42° (NE) 10:27:03 437.485
HUMSAT D 29 Jan 10:23:55 10:27:19 23° 93° (E) 10:30:43 437.325/437.525
DX 1 29 Jan 10:26:06 10:30:26 54° 100° (E) 10:34:45 434.975-435.025
COMPASS 1 29 Jan 10:26:43 10:30:30 34° 289° (WNW) 10:34:14 437.405
FUNcube-1 29 Jan 10:32:04 10:36:25 53° 99° (E) 10:40:39 145.935
QB50P2 29 Jan 10:32:18 10:36:33 66° 75° (ENE) 10:40:50 145.880/145.840
PHONESAT 2.4 29 Jan 10:34:05 10:37:35 49° 166° (SSE) 10:41:07 2401.200-2431.200
CINEMA 3 29 Jan 10:36:43 10:41:31 56° 287° (WNW) 10:46:04 145.822/145.860
GOMX 1 29 Jan 10:37:41 10:42:19 28° 293° (WNW) 10:46:41 467.674
QB50P1 29 Jan 10:41:37 10:45:53 83° 75° (ENE) 10:50:13 145.935-145.965
CANX-2 29 Jan 10:41:49 10:44:37 17° 294° (WNW) 10:47:15 2200.000
BRITE-PL 29 Jan 10:42:34 10:46:45 21° 296° (WNW) 10:50:40 437.365/2234.400
DELFI C3 29 Jan 10:48:07 10:52:05 55° 286° (WNW) 10:56:01 145.870
DOVE 4 29 Jan 10:50:05 10:54:31 28° 293° (WNW) 10:58:42 437.250
AISAT 29 Jan 10:50:36 10:54:49 38° 97° (E) 10:59:02 437.250
UWE-3 29 Jan 10:52:24 10:56:56 75° 284° (WNW) 11:01:17 435.000/436.395/437.385
AAUSAT CUBESAT 2 29 Jan 10:53:35 10:56:43 21° 292° (WNW) 10:59:46 437.432
BUGSAT 1 29 Jan 10:53:36 10:57:42 86° 78° (ENE) 11:01:53 437.445
ESTCUBE 1 29 Jan 10:54:07 10:57:14 19° 91° (E) 11:00:29 437.505/2401.250
POLYITAN 1 29 Jan 10:56:24 11:00:42 67° 259° (W) 11:05:01 437.675
UNISAT 6 29 Jan 11:00:06 11:04:33 39° 263° (W) 11:08:57 437.425
RS-15 29 Jan 11:03:09 11:11:31 24° 13° (NNE) 11:20:16 29.354- 29.394
Oscar 11 29 Jan 11:06:26 11:10:16 31° 290° (WNW) 11:14:02 145.826/435.025
CUTE 1.7 + AOD 2 29 Jan 11:07:42 11:08:36 10° 297° (WNW) 11:09:16 437.475
GONETS M04 29 Jan 11:11:00 11:16:34 19° 59° (ENE) 11:22:33
VERMONT LUNAR 29 Jan 11:13:23 11:16:52 71° 179° (S) 11:20:22 437.305
AIST 1 29 Jan 11:15:17 11:19:02 32° 92° (E) 11:22:53
POPSAT HIP 1 29 Jan 11:16:47 11:20:49 40° 263° (W) 11:24:53 437.405
VELOX 1 29 Jan 11:18:41 11:23:12 75° 102° (ESE) 11:27:40 145.980
DUCHIFAT 1 29 Jan 11:19:30 11:23:29 37° 263° (W) 11:27:29 145.980
CUBEBUG 1 29 Jan 11:27:13 11:31:22 38° 97° (E) 11:35:32 437.445
50 SAT 29 Jan 11:35:09 11:39:13 70° 284° (WNW) 11:43:11 437.505
ANTELSAT 29 Jan 11:37:42 11:40:54 17° 270° (W) 11:43:57 437.575/2403.000
SO-50 29 Jan 11:38:11 11:42:35 44° 310° (NW) 11:47:08 436.795
AIST 2 29 Jan 11:40:07 11:44:10 39° 50° (NE) 11:48:11 435.215
UKube-1 29 Jan 11:41:59 11:45:35 25° 292° (WNW) 11:49:05 .
BEESAT 2 29 Jan 11:44:12 11:48:24 83° 238° (WSW) 11:52:32 435.950
TIGRISAT 29 Jan 11:45:58 11:48:44 15° 271° (W) 11:51:18 435.000
CUBEBUG 2 29 Jan 11:50:01 11:53:09 18° 295° (WNW) 11:56:03 437.445
TISAT 1 29 Jan 11:50:45 11:53:22 16° 91° (E) 11:56:07 437.305
NANOSAT C BR1 29 Jan 11:55:42 11:58:26 16° 269° (W) 12:01:02 145.865
ZACube-1 29 Jan 11:57:15 12:00:31 20° 294° (WNW) 12:03:36 437.345
BEESAT 3 29 Jan 11:58:24 12:02:27 51° 242° (WSW) 12:06:25 437.485
HUMSAT D 29 Jan 11:59:25 12:03:09 29° 290° (WNW) 12:06:46 437.325/437.525
HO-68 29 Jan 12:01:00 12:04:13 13° 309° (NW) 12:07:03 435.675
DX 1 29 Jan 12:03:38 12:06:18 16° 296° (WNW) 12:08:49 434.975-435.025
FUNcube-1 29 Jan 12:09:43 12:12:22 15° 296° (WNW) 12:14:50 145.935
QB50P2 29 Jan 12:11:45 12:13:01 11° 272° (W) 12:14:02 145.880/145.840
PHONESAT 2.4 29 Jan 12:12:25 12:16:02 71° 182° (S) 12:19:40 2401.200-2431.200
PCSat 29 Jan 12:12:54 12:16:06 16° 39° (NE) 12:19:28 145.827
Oscar 19 29 Jan 12:18:26 12:22:45 28° 67° (ENE) 12:27:10 437.125/150
AISAT 29 Jan 12:27:45 12:31:15 22° 294° (WNW) 12:34:37 437.250
ESTCUBE 1 29 Jan 12:30:04 12:34:23 43° 288° (WNW) 12:38:38 437.505/2401.250
ITAMSAT 1 29 Jan 12:36:22 12:39:12 15° 61° (ENE) 12:42:15 435.822/435.867
SPROUT 29 Jan 12:48:19 12:52:41 73° 102° (ESE) 12:57:00 437.525
VERMONT LUNAR 29 Jan 12:51:27 12:54:51 48° 195° (SSW) 12:58:16 437.305
AIST 1 29 Jan 12:53:36 12:56:50 20° 289° (WNW) 13:00:00
VELOX 1 29 Jan 12:57:25 12:59:15 12° 298° (WNW) 13:00:52 145.980
CUBEBUG 1 29 Jan 13:04:08 13:07:32 21° 293° (WNW) 13:10:50 437.445
GONETS M04 29 Jan 13:06:11 13:14:56 88° 82° (E) 13:23:39
RS-15 29 Jan 13:16:33 13:27:27 52° 44° (NE) 13:38:54 29.354- 29.394
AIST 2 29 Jan 13:19:16 13:22:35 21° 247° (WSW) 13:25:46 435.215
TISAT 1 29 Jan 13:25:22 13:29:29 45° 288° (WNW) 13:33:34 437.305
Gurwin Techsat 1B 29 Jan 13:31:51 13:36:31 33° 68° (ENE) 13:41:15 435.225
AO-7 29 Jan 13:35:51 13:40:29 17° 48° (NE) 13:45:31 29.400- 29.500
HORYU 2 29 Jan 13:41:59 13:43:19 11° 62° (ENE) 13:44:52 437.375
PHONESAT 2.4 29 Jan 13:51:00 13:54:26 39° 199° (SSW) 13:57:52 2401.200-2431.200
SWISSCUBE 29 Jan 13:52:26 13:57:07 53° 100° (E) 14:01:48 437.505
PCSat 29 Jan 13:55:00 14:00:28 82° 60° (ENE) 14:05:54 145.827
Oscar 19 29 Jan 13:57:10 14:01:59 37° 263° (W) 14:06:48 437.125/150
BEESAT 29 Jan 14:08:10 14:12:57 71° 103° (ESE) 14:17:43 436.000
ITUPSAT 1 29 Jan 14:12:07 14:16:55 76° 102° (ESE) 14:21:44 437.325
ITAMSAT 1 29 Jan 14:13:00 14:18:10 74° 257° (WSW) 14:23:23 435.822/435.867
DANDE 29 Jan 14:14:45 14:18:29 16° 54° (NE) 14:21:59 436.750
STARS 29 Jan 14:21:58 14:23:45 12° 88° (E) 14:25:46 437.465
SPROUT 29 Jan 14:26:37 14:28:16 12° 297° (WNW) 14:29:40 437.525
KKS-1 29 Jan 14:27:18 14:30:47 22° 93° (E) 14:34:21 437.445
VERMONT LUNAR 29 Jan 14:30:18 14:32:32 16° 210° (SSW) 14:34:44 437.305
CUSAT 1 29 Jan 14:42:18 14:47:33 27° 63° (ENE) 14:51:48 437.405
GONETS M04 29 Jan 15:05:05 15:10:45 19° 281° (W) 15:15:56
Gurwin Techsat 1B 29 Jan 15:11:44 15:16:30 32° 265° (W) 15:21:13 435.225
HORYU 2 29 Jan 15:14:55 15:19:26 80° 258° (WSW) 15:23:58 437.375
AUBIESAT-1 29 Jan 15:20:40 15:22:18 13° 98° (E) 15:24:06 437.475
O/OREOS (USA 219) 29 Jan 15:21:47 15:23:03 11° 99° (E) 15:24:36 437.305
AO-7 29 Jan 15:23:42 15:31:58 69° 68° (ENE) 15:40:18 29.400- 29.500
RS-15 29 Jan 15:29:09 15:40:06 53° 247° (WSW) 15:51:22 29.354- 29.394
PHONESAT 2.4 29 Jan 15:31:09 15:32:28 11° 213° (SSW) 15:33:40 2401.200-2431.200
SWISSCUBE 29 Jan 15:31:21 15:34:39 18° 296° (WNW) 15:37:45 437.505
PCSat 29 Jan 15:40:33 15:43:16 14° 255° (WSW) 15:45:41 145.827
JAS-2 29 Jan 15:45:41 15:50:34 35° 69° (ENE) 15:55:18 435.910
BEESAT 29 Jan 15:47:46 15:50:18 14° 298° (WNW) 15:52:36 436.000
ITUPSAT 1 29 Jan 15:51:58 15:54:17 13° 298° (WNW) 15:56:22 437.325
STARS 29 Jan 15:56:19 16:00:45 62° 286° (WNW) 16:05:06 437.465
DANDE 29 Jan 15:56:38 16:03:27 84° 263° (W) 16:08:26 436.750
KKS-1 29 Jan 16:03:27 16:07:34 35° 290° (WNW) 16:11:37 437.445
MOZHAYETS 4 29 Jan 16:09:33 16:10:43 11° 87° (E) 16:12:10
M-CUBED/EXP-1 PRIME 29 Jan 16:21:07 16:24:27 81° 290° (WNW) 16:27:52 437.505
Cubesat XI-IV 29 Jan 16:21:49 16:23:34 12° 58° (ENE) 16:25:36 437.490
CUSAT 1 29 Jan 16:25:10 16:30:51 38° 271° (W) 16:35:09 437.405
CUTE-I 29 Jan 16:39:59 16:43:16 17° 62° (ENE) 16:46:45 437.470
AUBIESAT-1 29 Jan 16:54:25 16:57:26 32° 293° (WNW) 17:00:29 437.475
O/OREOS (USA 219) 29 Jan 16:57:28 17:01:56 69° 294° (WNW) 17:06:28 437.305
AO-7 29 Jan 17:18:37 17:25:30 27° 268° (W) 17:32:08 29.400- 29.500
JAS-2 29 Jan 17:31:08 17:35:50 28° 265° (W) 17:40:15 435.910
DANDE 29 Jan 17:43:50 17:45:19 11° 285° (WNW) 17:46:20 436.750
MOZHAYETS 4 29 Jan 17:44:00 17:48:34 72° 285° (WNW) 17:53:06
PRISM 29 Jan 17:56:51 17:59:03 14° 91° (E) 18:01:26 437.425
Cubesat XI-IV 29 Jan 17:57:36 18:02:55 82° 76° (ENE) 18:08:18 437.490
CUBESAT XI-V 29 Jan 18:01:53 18:04:08 14° 88° (E) 18:06:37 437.345
YUBILEINY 29 Jan 18:13:38 18:17:30 14° 77° (ENE) 18:22:01 435.215
STRAND 1 29 Jan 18:16:08 18:18:41 14° 88° (E) 18:21:29 437.568
CUTE-I 29 Jan 18:17:34 18:22:51 68° 258° (WSW) 18:28:12 437.470
SO-50 29 Jan 18:29:00 18:33:12 28° 45° (NE) 18:37:27 436.795
HO-68 29 Jan 18:54:04 18:58:57 21° 57° (ENE) 19:04:05 435.675
SEEDS 29 Jan 19:20:26 19:21:02 10° 63° (ENE) 19:21:53 437.485
PRISM 29 Jan 19:30:54 19:34:54 47° 288° (WNW) 19:38:54 437.425
CUBESAT XI-V 29 Jan 19:37:27 19:42:05 62° 286° (WNW) 19:46:44 437.345
Cubesat XI-IV 29 Jan 19:41:32 19:43:49 12° 273° (W) 19:45:47 437.490
COMPASS 1 29 Jan 19:44:21 19:46:51 16° 66° (ENE) 19:49:31 437.405
STRAND 1 29 Jan 19:53:21 19:58:30 70° 285° (WNW) 20:03:37 437.568
CANX-2 29 Jan 19:58:24 20:02:15 34° 71° (ENE) 20:06:09 2200.000
CINEMA 3 29 Jan 20:03:07 20:06:15 17° 64° (ENE) 20:09:35 145.822/145.860
YUBILEINY 29 Jan 20:04:24 20:13:03 78° 95° (E) 20:21:46 435.215
GOMX 1 29 Jan 20:07:15 20:12:02 43° 71° (ENE) 20:17:08 467.674
SO-50 29 Jan 20:09:16 20:13:58 45° 243° (WSW) 20:18:37 436.795
AAUSAT CUBESAT 2 29 Jan 20:09:17 20:12:43 25° 69° (ENE) 20:16:13 437.432
BRITE-PL 29 Jan 20:13:45 20:18:46 68° 75° (ENE) 20:24:13 437.365/2234.400
UWE-3 29 Jan 20:16:56 20:18:08 11° 62° (ENE) 20:19:36 435.000/436.395/437.385
DOVE 4 29 Jan 20:17:35 20:22:15 39° 70° (ENE) 20:27:10 437.250
CUTE 1.7 + AOD 2 29 Jan 20:22:06 20:26:18 56° 74° (ENE) 20:30:31 437.475
Oscar 11 29 Jan 20:26:14 20:29:22 20° 67° (ENE) 20:32:39 145.826/435.025
HO-68 29 Jan 20:38:48 20:45:58 82° 255° (WSW) 20:53:10 435.675
SEEDS 29 Jan 20:52:03 20:56:20 78° 258° (WSW) 21:00:36 437.485
UKube-1 29 Jan 21:01:16 21:04:57 28° 69° (ENE) 21:08:42 .
CUBEBUG 2 29 Jan 21:10:34 21:15:03 44° 72° (ENE) 21:19:38 437.445
ZACube-1 29 Jan 21:16:25 21:20:34 35° 71° (ENE) 21:24:48 437.345
HUMSAT D 29 Jan 21:16:49 21:19:54 20° 67° (ENE) 21:23:05 437.325/437.525
COMPASS 1 29 Jan 21:18:10 21:22:16 47° 261° (W) 21:26:21 437.405
DX 1 29 Jan 21:22:04 21:26:15 49° 72° (ENE) 21:30:30 434.975-435.025
FUNcube-1 29 Jan 21:27:58 21:32:19 45° 73° (ENE) 21:36:45 145.935
CANX-2 29 Jan 21:34:58 21:38:19 21° 267° (W) 21:41:34 2200.000
DELFI C3 29 Jan 21:36:22 21:40:28 86° 262° (W) 21:44:34 145.870
CINEMA 3 29 Jan 21:38:06 21:43:00 61° 261° (W) 21:48:00 145.822/145.860
AAUSAT CUBESAT 2 29 Jan 21:44:41 21:48:20 27° 265° (W) 21:51:56 437.432
GOMX 1 29 Jan 21:46:12 21:50:23 24° 269° (W) 21:54:39 467.674
AISAT 29 Jan 21:49:07 21:53:11 36° 70° (ENE) 21:57:19 437.250
UWE-3 29 Jan 21:49:21 21:54:03 88° 257° (WSW) 21:58:47 435.000/436.395/437.385
ESTCUBE 1 29 Jan 21:54:43 21:57:46 19° 66° (ENE) 22:00:59 437.505/2401.250
BRITE-PL 29 Jan 21:54:55 21:58:00 15° 274° (W) 22:00:56 437.365/2234.400
DOVE 4 29 Jan 21:55:54 22:00:09 26° 268° (W) 22:04:30 437.250
CUTE 1.7 + AOD 2 29 Jan 22:00:36 22:02:40 13° 271° (W) 22:04:31 437.475
TIGRISAT 29 Jan 22:01:14 22:02:25 11° 87° (E) 22:03:52 435.000
Oscar 11 29 Jan 22:01:18 22:05:21 37° 263° (W) 22:09:25 145.826/435.025
YUBILEINY 29 Jan 22:04:16 22:11:01 23° 298° (WNW) 22:17:28 435.215
ISS 29 Jan 22:06:46 22:09:59 57° 141° (SE) 22:13:13 145.825
VELOX 1 29 Jan 22:16:43 22:21:07 70° 74° (ENE) 22:25:34 145.980
QB50P2 29 Jan 22:20:19 22:21:12 11° 87° (E) 22:22:22 145.880/145.840
50 SAT 29 Jan 22:22:34 22:26:41 74° 76° (ENE) 22:30:50 437.505
CUBEBUG 1 29 Jan 22:24:02 22:27:55 33° 70° (ENE) 22:31:53 437.445
QB50P1 29 Jan 22:28:26 22:30:29 13° 89° (E) 22:32:45 145.935-145.965
HO-68 29 Jan 22:31:15 22:34:55 14° 274° (W) 22:38:06 435.675
UKube-1 29 Jan 22:37:25 22:41:07 26° 265° (W) 22:44:45 .
BUGSAT 1 29 Jan 22:37:31 22:39:25 13° 89° (E) 22:41:32 437.445
POLYITAN 1 29 Jan 22:42:44 22:45:52 20° 92° (E) 22:49:06 437.675
TISAT 1 29 Jan 22:44:35 22:46:40 14° 64° (ENE) 22:48:56 437.305
CUBEBUG 2 29 Jan 22:48:25 22:52:00 20° 269° (W) 22:55:29 437.445
HUMSAT D 29 Jan 22:51:21 22:55:27 40° 262° (W) 22:59:34 437.325/437.525
UNISAT 6 29 Jan 22:52:00 22:56:14 41° 98° (E) 23:00:23 437.425
ZACube-1 29 Jan 22:53:18 22:57:03 24° 267° (W) 23:00:44 437.345
AIST 1 29 Jan 22:58:59 23:03:21 82° 263° (W) 23:07:43
DX 1 29 Jan 23:00:13 23:02:51 15° 269° (W) 23:05:21 434.975-435.025
POPSAT HIP 1 29 Jan 23:01:57 23:05:48 31° 96° (E) 23:09:39 437.405
DUCHIFAT 1 29 Jan 23:04:15 23:08:08 33° 96° (E) 23:12:01 145.980
FUNcube-1 29 Jan 23:05:42 23:08:57 18° 269° (W) 23:12:05 145.935
AISAT 29 Jan 23:26:30 23:29:58 21° 267° (W) 23:33:21 437.250
ANTELSAT 29 Jan 23:27:55 23:32:24 79° 284° (WNW) 23:36:44 437.575/2403.000
ESTCUBE 1 29 Jan 23:30:06 23:34:24 44° 262° (W) 23:38:42 437.505/2401.250
TIGRISAT 29 Jan 23:35:21 23:39:48 67° 286° (WNW) 23:44:06 435.000
NANOSAT C BR1 29 Jan 23:38:41 23:43:01 82° 103° (ESE) 23:47:18 145.865
BEESAT 29 Jan 23:42:09 23:42:35 10° 60° (ENE) 23:43:17 436.000
SPROUT 29 Jan 23:42:46 23:47:00 57° 74° (ENE) 23:51:16 437.525
ISS 29 Jan 23:43:52 23:46:41 25° 339° (NNW) 23:49:31 145.825
ITUPSAT 1 29 Jan 23:45:37 23:46:48 11° 60° (ENE) 23:48:15 437.325
QB50P2 29 Jan 23:53:23 23:57:42 67° 285° (WNW) 00:01:56 145.880/145.840
VELOX 1 29 Jan 23:56:59 23:58:19 11° 273° (W) 23:59:22 145.980
CUBEBUG 1 30 Jan 00:00:56 00:04:24 22° 267° (W) 00:07:47 437.445
QB50P1 30 Jan 00:02:34 00:06:48 54° 287° (WNW) 00:10:59 145.935-145.965
BUGSAT 1 30 Jan 00:11:08 00:15:21 56° 287° (WNW) 00:19:32 437.445
GONETS M04 30 Jan 00:14:10 00:19:53 21° 80° (E) 00:26:00
TISAT 1 30 Jan 00:17:54 00:22:04 57° 260° (W) 00:26:17 437.305
POLYITAN 1 30 Jan 00:17:59 00:21:59 36° 289° (WNW) 00:25:54 437.675
UNISAT 6 30 Jan 00:29:34 00:32:47 19° 294° (WNW) 00:35:48 437.425
POPSAT HIP 1 30 Jan 00:38:06 00:41:35 24° 292° (WNW) 00:44:58 437.405
DUCHIFAT 1 30 Jan 00:40:26 00:43:51 23° 292° (WNW) 00:47:09 145.980
SWISSCUBE 30 Jan 00:59:23 01:04:05 64° 73° (ENE) 01:08:49 437.505
BEESAT 30 Jan 01:15:00 01:19:45 84° 76° (ENE) 01:24:33 436.000
NANOSAT C BR1 30 Jan 01:17:40 01:18:19 10° 298° (WNW) 01:18:43 145.865
ITUPSAT 1 30 Jan 01:19:18 01:24:04 90° 265° (W) 01:28:52 437.325
STARS 30 Jan 01:19:59 01:21:57 13° 63° (ENE) 01:24:07 437.465
SPROUT 30 Jan 01:21:31 01:23:34 13° 272° (W) 01:25:24 437.525
ISS 30 Jan 01:22:00 01:24:02 15° 359° (N) 01:26:03 145.825
KKS-1 30 Jan 01:26:12 01:29:38 22° 67° (ENE) 01:33:10 437.445
O/OREOS (USA 219) 30 Jan 01:28:15 01:32:05 26° 57° (ENE) 01:35:58 437.305
M-CUBED/EXP-1 PRIME 30 Jan 01:38:15 01:39:53 13° 62° (ENE) 01:41:38 437.505
BEESAT 2 30 Jan 01:40:40 01:43:20 17° 112° (ESE) 01:46:09 435.950
Gurwin Techsat 1B 30 Jan 01:49:33 01:51:22 12° 86° (E) 01:53:30 435.225
BEESAT 3 30 Jan 01:53:11 01:56:36 26° 114° (ESE) 02:00:08 437.485
GONETS M04 30 Jan 02:07:00 02:15:49 82° 280° (W) 02:24:35
Oscar 19 30 Jan 02:07:53 02:13:03 76° 101° (ESE) 02:18:12 437.125/150
AUBIESAT-1 30 Jan 02:09:14 02:12:24 24° 66° (ENE) 02:15:27 437.475
ITAMSAT 1 30 Jan 02:25:40 02:30:32 39° 97° (E) 02:35:25 435.822/435.867
SWISSCUBE 30 Jan 02:39:59 02:42:30 14° 271° (W) 02:44:45 437.505
